This is the latest recevied weather packets stored in our database for station/object N8RJC-13. If no packets are shown the sender has not sent any weather packets the latest 1 day(s).
| Time | Temp. | Humidity | Pressure | Rain* | Wind** | Luminosity | Snow |
|---|---|---|---|---|---|---|---|
| 1778094441 | 15° C | 55% | 989.5 hPa | 0 mm | 0.45 m/s, 32° | - | - |
| 1778094381 | 15° C | 55% | 989.5 hPa | 0 mm | 0.45 m/s, 32° | - | - |
| 1778094321 | 15.56° C | 57% | 989.7 hPa | 0 mm | 0.89 m/s, 332° | - | - |
| 1778094261 | 15.56° C | 57% | 989.7 hPa | 0 mm | 0.89 m/s, 332° | - | - |
| 1778094201 | 15.56° C | 57% | 989.7 hPa | 0 mm | 0.89 m/s, 332° | - | - |
| 1778094141 | 15.56° C | 57% | 989.7 hPa | 0 mm | 0.89 m/s, 332° | - | - |
| 1778094081 | 15.56° C | 57% | 989.7 hPa | 0 mm | 0.89 m/s, 332° | - | - |
| 1778094021 | 15° C | 55% | 989.7 hPa | 0 mm | 0.89 m/s, 14° | - | - |
| 1778093901 | 15° C | 55% | 989.7 hPa | 0 mm | 0.89 m/s, 14° | - | - |
| 1778093841 | 15° C | 55% | 989.7 hPa | 0 mm | 0.89 m/s, 14° | - | - |
| 1778093661 | 15° C | 59% | 989.6 hPa | 0 mm | 0.89 m/s, 295° | - | - |
| 1778093421 | 14.44° C | 55% | 989.6 hPa | 0 mm | 0.89 m/s, 296° | - | - |
| 1778093361 | 14.44° C | 55% | 989.6 hPa | 0 mm | 0.89 m/s, 296° | - | - |
| 1778093241 | 14.44° C | 55% | 989.6 hPa | 0 mm | 0.89 m/s, 296° | - | - |
| 1778093061 | 13.89° C | 52% | 989.2 hPa | 0 mm | 0.89 m/s, 6° | - | - |
| 1778092821 | 14.44° C | 51% | 989.4 hPa | 0 mm | 1.34 m/s, 29° | - | - |
| 1778092521 | 14.44° C | 50% | 989.3 hPa | 0 mm | 2.24 m/s, 330° | - | - |
| 1778092461 | 14.44° C | 50% | 989.3 hPa | 0 mm | 2.24 m/s, 330° | - | - |
| 1778092341 | 14.44° C | 50% | 989.3 hPa | 0 mm | 2.24 m/s, 330° | - | - |
| 1778092281 | 14.44° C | 50% | 989.3 hPa | 0 mm | 2.24 m/s, 330° | - | - |
| 1778092101 | 14.44° C | 54% | 989.3 hPa | 0 mm | 0 m/s | - | - |
| 1778091921 | 14.44° C | 54% | 989.4 hPa | 0 mm | 1.34 m/s, 15° | - | - |
| 1778091801 | 14.44° C | 54% | 989.4 hPa | 0 mm | 1.34 m/s, 15° | - | - |
| 1778091741 | 14.44° C | 54% | 989.4 hPa | 0 mm | 1.34 m/s, 15° | - | - |
| 1778091681 | 14.44° C | 54% | 989.4 hPa | 0 mm | 1.34 m/s, 15° | - | - |
* Rain latest hour (hover to see other rain measurements)
** Current wind speed in m/s (hover to see current wind gust speed)